Location: Unspecified
(0.0000°N, 0.0000°E)
Time: 17:49:11
(UTC+00:00)

Courier 1B Rocket - All Passes

Search period start: 25 July 2016 00:00
Search period end: 04 August 2016 00:00
Orbit: 920 x 1202 km, 28.3° (Epoch: 24 July)

Date Brightness Start Highest point End Pass type
(mag) Time Alt. Az. Time Alt. Az. Time Alt. Az.
25 Jul - 00:05:03 10° SW 00:11:30 34° SSE 00:18:17 10° E night (unlit)
25 Jul - 01:57:51 10° WSW 02:05:20 75° NNW 02:13:09 10° NE visible
25 Jul - 03:53:26 10° WNW 03:59:31 25° NNW 04:05:39 10° NNE visible
25 Jul - 11:36:17 10° NNW 11:41:55 26° NNE 11:47:15 10° E daylight
25 Jul - 13:28:56 10° WNW 13:35:36 88° SSW 13:41:56 10° ESE daylight
25 Jul - 15:24:11 10° WSW 15:29:07 23° SSW 15:33:58 10° SSE daylight
25 Jul - 23:04:49 10° SSW 23:10:12 23° SSE 23:15:51 10° ESE night (unlit)
26 Jul - 00:56:46 10° SW 01:04:04 76° SSE 01:11:48 10° ENE night (unlit)
26 Jul - 02:51:15 10° W 02:58:02 35° NNW 03:05:01 10° NE visible
26 Jul - 04:49:57 10° NW 04:52:51 12° NNW 04:55:44 10° N visible
26 Jul - 10:35:50 10° NNW 10:40:34 19° NNE 10:45:05 10° ENE daylight
26 Jul - 12:27:49 10° NW 12:34:35 61° NNE 12:40:55 10° ESE daylight
26 Jul - 14:22:08 10° W 14:28:02 36° SSW 14:33:45 10° SE daylight
26 Jul - 22:05:02 10° S 22:08:50 15° SSE 22:12:46 10° ESE night (unlit)
26 Jul - 23:56:00 10° SW 00:02:51 51° SSE 00:10:10 10° ENE night (unlit)
27 Jul - 01:49:32 10° WSW 01:56:40 50° NNW 02:04:08 10° NE visible
27 Jul - 03:46:23 10° WNW 03:51:07 17° NNW 03:55:55 10° NNE visible
27 Jul - 09:35:42 10° N 09:39:02 13° NNE 09:42:17 10° NE daylight
27 Jul - 11:26:53 10° NW 11:33:28 41° NNE 11:39:37 10° E daylight
27 Jul - 13:20:26 10° WNW 13:27:01 56° SSW 13:33:15 10° SE daylight
27 Jul - 15:17:13 10° WSW 15:20:45 15° SSW 15:24:15 10° S daylight
27 Jul - 22:55:31 10° SW 23:01:39 34° SSE 23:08:10 10° E night (unlit)
28 Jul - 00:48:13 10° WSW 00:55:22 73° NNW 01:03:02 10° NE night (unlit)
28 Jul - 02:43:43 10° WNW 02:49:32 24° NNW 02:55:32 10° NNE visible
28 Jul - 10:26:08 10° NNW 10:32:13 28° NNE 10:37:56 10° E daylight
28 Jul - 12:19:00 10° WNW 12:26:00 86° SSW 12:32:32 10° ESE daylight
28 Jul - 14:14:28 10° W 14:19:34 23° SSW 14:24:29 10° SSE daylight
28 Jul - 21:55:21 10° SSW 22:00:26 22° SSE 22:05:46 10° ESE night (unlit)
28 Jul - 23:47:13 10° SW 23:54:10 78° SSE 00:01:40 10° ENE night (unlit)
29 Jul - 01:41:37 10° W 01:48:05 33° NNW 01:54:52 10° NE visible
29 Jul - 03:40:20 10° NW 03:42:55 12° NNW 03:45:31 10° N visible
29 Jul - 09:25:33 10° NNW 09:30:48 20° NNE 09:35:49 10° ENE daylight
29 Jul - 11:17:46 10° NW 11:24:54 64° NNE 11:31:32 10° ESE daylight
29 Jul - 13:12:17 10° W 13:18:27 36° SSW 13:24:18 10° SE daylight
29 Jul - 20:55:41 10° S 20:59:09 15° SSE 21:02:42 10° ESE night (unlit)
29 Jul - 22:46:30 10° SW 22:53:02 51° SSE 23:00:03 10° ENE night (unlit)
30 Jul - 00:39:58 10° WSW 00:46:44 48° NNW 00:53:58 10° NE night (unlit)
30 Jul - 02:36:48 10° WNW 02:41:11 16° NNW 02:45:41 10° NNE visible
30 Jul - 08:25:16 10° NNW 08:29:13 15° NNE 08:33:05 10° NE daylight
30 Jul - 10:16:45 10° NW 10:23:43 43° NNE 10:30:13 10° E daylight
30 Jul - 12:10:28 10° WNW 12:17:22 55° SSW 12:23:50 10° SE daylight
30 Jul - 14:07:26 10° WSW 14:11:10 15° SSW 14:14:49 10° S daylight
30 Jul - 21:46:04 10° SSW 21:51:56 33° SSE 21:58:08 10° E night (unlit)
30 Jul - 23:38:42 10° WSW 23:45:31 70° NNW 23:52:53 10° NE night (unlit)
31 Jul - 01:34:11 10° WNW 01:39:37 22° NNW 01:45:18 10° NNE visible
31 Jul - 07:25:51 10° N 07:27:29 11° NNE 07:29:06 10° NNE daylight
31 Jul - 09:15:55 10° NNW 09:22:24 30° NNE 09:28:31 10° E daylight
31 Jul - 11:08:56 10° WNW 11:16:17 84° SSW 11:23:06 10° ESE daylight
31 Jul - 13:04:34 10° W 13:09:56 24° SSW 13:15:04 10° SSE daylight
31 Jul - 20:45:56 10° SSW 20:50:46 22° SSE 20:55:47 10° ESE visible
31 Jul - 22:37:44 10° SW 22:44:23 79° SSE 22:51:34 10° ENE night (unlit)
01 Aug - 00:32:08 10° W 00:38:12 31° NNW 00:44:39 10° NNE night (unlit)
01 Aug - 02:31:09 10° NNW 02:33:02 11° NNW 02:34:55 10° N visible
01 Aug - 08:15:17 10° NNW 08:20:56 22° NNE 08:26:23 10° ENE daylight
01 Aug - 10:07:38 10° NW 10:15:07 67° NNE 10:22:04 10° ESE daylight
01 Aug - 12:02:17 10° W 12:08:46 36° SSW 12:14:52 10° SE daylight
01 Aug - 14:02:25 10° SSW 14:02:56 10° SSW 14:03:26 10° SSW daylight
01 Aug - 19:46:19 10° S 19:49:32 14° SSE 19:52:48 10° SE visible
01 Aug - 21:37:04 10° SW 21:43:20 51° SSE 21:50:01 10° ENE night (unlit)
01 Aug - 23:30:32 10° W 23:36:56 45° NNW 23:43:48 10° NE night (unlit)
02 Aug - 01:27:26 10° NW 01:31:20 15° NNW 01:35:21 10° NNE visible
02 Aug - 07:14:57 10° NNW 07:19:20 16° NNE 07:23:37 10° NE daylight
02 Aug - 09:06:34 10° NW 09:13:51 46° NNE 09:20:43 10° E daylight
02 Aug - 11:00:23 10° WNW 11:07:37 55° SSW 11:14:22 10° SE daylight
02 Aug - 12:57:28 10° WSW 13:01:32 16° SSW 13:05:27 10° S daylight
02 Aug - 20:36:39 10° SSW 20:42:17 33° SSE 20:48:11 10° E visible
02 Aug - 22:29:16 10° WSW 22:35:47 67° NNW 22:42:47 10° NE night (unlit)
03 Aug - 00:24:48 10° WNW 00:29:48 21° NNW 00:35:02 10° NNE night (unlit)
03 Aug - 06:15:19 10° N 06:17:35 11° NNE 06:19:49 10° NE daylight
03 Aug - 08:05:43 10° NNW 08:12:29 32° NNE 08:18:58 10° E daylight
03 Aug - 09:58:48 10° WNW 10:06:27 82° SSW 10:13:35 10° ESE daylight
03 Aug - 11:54:32 10° W 12:00:14 24° SSW 12:05:38 10° SSE daylight
03 Aug - 19:36:29 10° SSW 19:41:11 22° SSE 19:45:58 10° ESE visible
03 Aug - 21:28:20 10° WSW 21:34:44 81° SSE 21:41:34 10° ENE visible
03 Aug - 23:22:46 10° W 23:28:27 29° NNW 23:34:28 10° NNE night (unlit)
